Weather in Stolby

Russia / Sakha (Yakutia) Republic     63°00′06″N   129°31′44″E
temp.,
°C
wind,
m/s
gust,
m/s
humid.,
%
clouds,
%
prec.,
mm/h
press.,
hPa
HPBL,
m
23 april, fri
fri2300:00−11w411885 0.0 1025169
03:00−13w499149 0.0 1025111
06:00−13wsw269633 0.0 102483
09:00−5s248673 0.0 1022357
12:00−2s5787100 0.1 1019800
15:00−2s3594100 1.8 1017521
18:00−2se1289100 0.9 1016196
21:00−5ne2398100 1.3 101680
24 april, sat
sat2400:00−7nne359791 0.2 1017111
03:00−10n239795 0.3 101948
06:00−8nnw2496100 0.3 1021150
09:00−4nw358785 0.5 1022479
12:00−2nw5781100 0.1 10231001
15:00−1wnw577892 0.1 10231060
18:00−2wnw51081100 0.0 1023578
21:00−6w499042 0.0 1023227
25 april, sun
sun2500:00−10w3897100 0.0 1022150
03:00−7w379580 0.0 1020168
06:00−6wnw139696 0.3 1019122
09:00−4ne2194100 1.3 1018255
12:00−3ne219596 1.1 1016309
15:00−2nne1194100 1.3 1015236
18:00−2ne119497 0.3 1014193
21:00−5e0099100 0.4 101310
26 april, mon
mon2600:00−7e1198100 0.1 101210
03:00−7ene1198100 0.6 101032
06:00−6e2496100 0.5 1009136
09:00−2e3495100 0.9 1008314
12:00−1e3598100 0.5 1006426
15:000e36100100 1.5 1005330
18:000e24100100 0.9 1005317
21:00−1ese2499100 1.2 1005187
27 april, tue
tue2700:00−2ese1499100 0.8 1004158
03:00−2wsw1199100 2.6 100468
06:00−4wnw61193100 0.8 1005410
09:00−5wnw61290100 0.8 1008541
12:00−3wnw6882100 0.1 1009923
15:00−4wnw6981100 0.1 10111042
18:00−5wnw51082100 0.1 1012796
21:00−8w51186100 0.1 1013421